This demonstration page uses our WeatherBlox Daily Observations layout. Learn more.

Left ArrowRight Arrow

41.55636, -103.73856

Hourly Observations for July 4, 2017

Temp ( °F °C ) Dew Point ( °F °C ) Humidity (%) Winds ( mph kmh ) Pressure ( in mb ) Visibility ( mi km ) Precip ( " mm )
12:53 am 00:53 Clear 63 17.2 51 10.6 65 65 E 8 13 29.91 1013 10 16 0.00 0.00
1:53 am 01:53 Clear 63 17.2 51 10.6 65 65 E 7 11 29.90 1012 10 16 0.00 0.00
2:53 am 02:53 Clear 61 16.1 51 10.6 70 70 SSE 3 6 29.88 1012 10 16 0.00 0.00
3:53 am 03:53 Mostly Clear 58 14.4 52 11.1 81 81 ENE 5 7 29.88 1012 10 16 0.00 0.00
4:53 am 04:53 Clear 58 14.4 50 10 75 75 ENE 8 13 29.89 1012 10 16 0.00 0.00
5:53 am 05:53 Sunny 59 15 50 10 72 72 E 6 9 29.91 1013 10 16 0.00 0.00
6:53 am 06:53 Sunny 66 18.9 52 11.1 61 61 E 3 6 29.91 1013 10 16 0.00 0.00
7:53 am 07:53 Sunny 70 21.1 54 12.2 57 57 NW 6 9 29.93 1014 10 16 0.00 0.00
8:53 am 08:53 Sunny 71 21.7 53 11.7 53 53 WNW 10 17 29.95 1014 10 16 0.00 0.00
9:53 am 09:53 Sunny 76 24.4 55 12.8 48 48 W 9 15 29.94 1014 10 16 0.00 0.00
10:53 am 10:53 Sunny 81 27.2 55 12.8 41 41 Calm 29.93 1014 10 16 0.00 0.00
11:53 am 11:53 Sunny 86 30 57 13.9 37 37 VRB 7 11 29.93 1014 10 16 0.00 0.00
12:53 pm 12:53 Sunny 89 31.7 57 13.9 34 34 SSW 7 11 29.92 1013 10 16 0.00 0.00
1:53 pm 13:53 Sunny 93 33.9 52 11.1 25 25 SSE 10 17 29.91 1013 10 16 0.00 0.00
2:53 pm 14:53 Sunny 93 33.9 49 9.4 22 22 VRB 3 6 29.90 1013 10 16 0.00 0.00
3:53 pm 15:53 Sunny 94 34.4 43 6.1 17 17 VRB 6 9 29.89 1012 10 16 0.00 0.00
4:53 pm 16:53 Sunny 93 33.9 45 7.2 19 19 undefined N/A 29.88 1012 10 16 0.00 0.00
5:53 pm 17:53 Sunny 92 33.3 47 8.3 21 21 SE 8 13 29.89 1012 10 16 0.00 0.00
6:53 pm 18:53 Sunny 92 33.3 47 8.3 21 21 E 5 7 29.88 1012 10 16 0.00 0.00
7:53 pm 19:53 Sunny 84 28.9 50 10 31 31 E 7 11 29.91 1013 10 16 0.00 0.00
8:53 pm 20:53 Clear 77 25 52 11.1 42 42 ESE 8 13 29.94 1014 10 16 0.00 0.00
9:53 pm 21:53 Clear 71 21.7 53 11.7 53 53 Calm 29.97 1015 10 16 0.00 0.00
10:53 pm 22:53 Clear 70 21.1 53 11.7 55 55 E 6 9 29.97 1015 10 16 0.00 0.00
11:53 pm 23:53 Clear 69 20.6 52 11.1 55 55 E 8 13 29.98 1015 10 16 0.00 0.00

Powered by AerisWeather